CAPE
2444 2590 2575 2718 2480 2476 1568 1550 1992 2068 2059 2563 2505 2465 2490 2547 3195 3373 3150 1580 1575 1003 378 0 0 0 0 0 0 0 0 0 0 8 32 59 81 139 173 173 86 79 5
3384 3862 3745 3318 3239 2719 2720 1720 1590 2659 2528 2052 2326 2554 2623 2310 2933 3548 3179 1515 1466 1388 466 10 0 0 0 0 1 0 0 1 0 89 73 108 143 106 216 190 82 34 37
3219 3265 3992 4117 4188 4299 4155 3791 3068 2595 1931 1582 2213 2454 2664 2352 2706 3675 3211 1761 1319 1425 757 91 0 0 0 0 0 0 0 0 16 29 38 70 97 141 178 198 104 81 28
2563 2915 3795 3251 3960 3212 3985 3510 3056 2919 2055 1991 2307 2565 2702 2230 2952 3486 3102 1497 1097 1251 1283 187 0 0 0 0 0 10 0 11 44 16 36 56 59 55 144 131 42 4 7
3661 2785 3474 3396 3260 3121 3012 2901 2862 3049 2420 1929 1805 1956 2195 1975 2682 3885 2865 1387 862 1146 1203 379 0 0 0 0 0 0 4 9 5 18 17 28 12 23 59 208 34 7 0
2210 2361 3098 3715 3595 3876 3531 3273 3511 3049 2956 3168 2096 1471 1564 1541 1890 2873 2446 1246 848 1063 1061 512 8 0 0 0 0 0 0 0 19 17 19 43 2 0 52 22 1 0 0
2384 2339 2689 3485 3237 3769 3606 3903 3851 3892 3886 3168 2523 1898 1864 2406 2545 2368 2047 1401 895 1062 1078 1117 86 0 0 0 0 0 0 0 0 25 20 15 8 2 10 27 0 0 2
2688 2564 2486 2548 2726 3319 4135 4358 4606 4395 4319 3749 2993 2733 2756 2638 2255 2305 2086 1500 897 1014 991 1076 236 12 0 0 0 3 0 0 0 4 10 0 0 0 22 17 1 0 0
2695 2796 2802 2748 3022 3158 3708 4237 4477 4430 4587 4066 3292 3466 3604 2383 2203 2475 2018 1285 911 977 846 898 360 114 0 0 0 2 13 1 0 0 0 0 0 0 1 1 0 0 3
2180 2550 2887 3070 3547 3242 4047 4452 4626 4168 4432 3517 3682 4115 3420 3158 2309 2551 2000 1066 629 880 715 772 521 232 0 0 0 0 11 8 6 2 3 1 5 7 0 20 0 0 0
2220 3019 2967 3549 3527 3700 4377 4549 4547 4539 4269 4376 4055 4191 4263 3803 2445 2500 2090 1098 493 796 654 674 639 269 26 0 0 1 6 0 0 12 19 43 28 0 0 0 0 0 0
1940 2184 2539 3251 3036 3190 3831 4455 4555 4629 4441 4247 4453 3450 3144 3869 2717 2594 2024 1493 663 707 676 565 520 283 104 0 0 0 0 0 26 12 10 8 2 0 0 0 0 0 0
2137 2280 2659 2792 3138 3347 3262 2901 3987 4193 4080 3665 2506 3263 3891 3853 2435 2272 1660 1808 1386 759 713 658 431 320 157 0 0 0 0 0 13 26 21 7 7 0 0 0 0 0 0
1044 1290 1416 1804 2094 2553 2353 1923 1936 2039 2046 2245 2389 1808 3961 3903 2237 2025 1479 1741 1650 887 625 709 473 338 172 37 0 0 0 0 8 11 10 4 11 14 0 0 0 0 0
916 873 883 864 772 1123 982 997 786 694 696 1055 1027 1054 1195 1913 2411 1443 1124 1383 1548 1047 769 550 581 426 284 79 0 0 0 0 3 6 10 14 8 29 15 0 19 0 0
877 768 308 729 768 734 628 343 162 27 131 396 382 334 478 827 1293 1396 997 1167 1418 1195 887 581 472 386 406 118 3 0 0 0 2 8 9 6 7 15 24 18 20 0 0
901 405 663 703 157 250 225 181 122 78 2 17 15 97 250 600 780 927 756 468 923 914 1053 856 563 400 306 158 16 0 0 0 11 3 10 4 5 6 12 20 14 8 20
379 468 757 557 824 1090 273 240 427 700 243 112 0 71 86 211 294 304 142 88 330 546 654 743 193 337 302 212 69 0 0 0 0 0 2 3 5 0 6 10 14 13 10
497 922 840 734 895 717 966 1031 910 565 170 64 0 0 75 63 37 20 60 12 138 267 363 358 124 103 166 208 151 14 0 0 0 0 0 3 1 3 3 7 6 1 4
361 378 493 534 672 707 686 551 446 357 236 12 11 0 10 92 151 144 111 60 56 47 257 176 100 53 62 165 164 64 0 0 0 0 0 0 1 0 3 2 4 2 9
258 358 370 326 384 578 861 532 543 465 355 387 195 138 148 118 193 126 132 113 168 330 117 76 179 75 67 89 118 71 6 0 0 0 0 0 0 0 1 0 0 0 16
211 244 299 337 258 246 178 346 522 523 450 354 349 223 220 182 153 220 98 332 146 180 39 7 23 158 77 60 112 77 31 11 0 0 0 0 0 0 0 0 0 0 5
163 269 281 251 298 250 190 165 168 255 395 387 358 322 224 268 169 89 53 25 0 1 0 0 0 35 91 105 135 81 31 45 5 0 0 0 0 0 0 0 0 0 0
146 185 257 335 235 208 256 244 174 173 125 105 85 55 13 2 2 1 2 22 8 0 0 8 14 41 61 93 57 55 12 25 0 0 0 0 0 0 0 0 0 0 0
153 175 218 261 497 409 284 209 209 207 188 101 0 2 6 15 8 8 0 0 1 9 9 14 21 40 28 18 21 67 68 58 16 0 0 0 0 0 0 0 0 0 0
8 76 144 181 376 350 320 461 306 152 110 179 154 35 4 34 11 13 12 7 5 6 19 39 44 40 29 23 15 65 54 84 70 54 1 0 0 0 0 0 0 0 0
CIN
-30 -22 -32 -39 -41 -43 -75 -78 -40 -21 -19 -0 -0 -0 -0 -0 -0 -0 -0 -51 -18 -83 -195 -0 -0 -0 -0 -0 -0 -0 -0 -0 -0 -0 -0 -7 -7 -2 -4 -4 -10 -3 -22
-20 -3 -12 -24 -19 -29 -43 -66 -66 -9 -3 -18 -4 -0 -0 -2 -0 -0 -0 -44 -36 -30 -171 -309 -0 -0 -0 -0 -6 -0 -0 -0 -0 -0 -6 -16 -2 -0 -3 -5 -13 -4 -0
-22 -29 -14 -14 -8 -6 -11 -11 -20 -26 -38 -48 -3 -4 -2 -3 -0 -0 -0 -30 -57 -36 -105 -252 -0 -0 -0 -0 -0 -0 -0 -0 -0 -0 -22 -9 -9 -7 -13 -28 -6 -0 -5
-19 -25 -11 -30 -18 -45 -20 -25 -31 -28 -48 -38 -5 -1 -7 -5 -0 -0 -0 -63 -93 -41 -38 -197 -0 -0 -0 -0 -0 -0 -0 -3 -0 -0 -1 -0 -3 -1 -5 -0 -0 -2 -1
-0 -26 -27 -34 -29 -29 -31 -30 -22 -19 -42 -54 -34 -28 -18 -19 -0 -1 -0 -60 -106 -44 -38 -187 -0 -0 -0 -0 -0 -0 -0 -0 -0 -0 -0 -0 -0 -6 -0 -12 -0 -0 -0
-19 -41 -27 -12 -18 -7 -8 -6 -1 -2 -10 -5 -37 -55 -35 -33 -14 -38 -22 -72 -103 -73 -57 -119 -79 -0 -0 -0 -0 -0 -0 -0 -0 -0 -0 -0 -0 -0 -0 -0 -1 -0 -0
-39 -36 -35 -18 -22 -5 -7 -0 -0 -0 -0 -2 -17 -33 -29 -8 -42 -21 -3 -23 -97 -73 -59 -34 -121 -0 -0 -0 -0 -0 -0 -0 -0 -0 -0 -0 -0 -10 -7 -4 -0 -0 -0
-27 -43 -55 -52 -28 -13 -0 -0 -0 -0 -0 -0 -2 -5 -1 -2 -30 -14 -12 -8 -95 -80 -77 -38 -116 -79 -0 -0 -0 -0 -0 -0 -0 -0 -0 -0 -0 -0 -1 -0 -1 -0 -1
-25 -23 -29 -36 -19 -14 -4 -0 -0 -0 -0 -0 -0 -0 -0 -16 -5 -3 -13 -22 -88 -75 -92 -62 -123 -101 -0 -0 -0 -0 -0 -0 -0 -0 -0 -0 -0 -0 -0 -0 -0 -0 -0
-43 -20 -12 -6 -4 -12 -0 -0 -0 -0 -0 -0 -0 -0 -0 -24 -6 -7 -4 -33 -114 -79 -97 -80 -102 -99 -0 -0 -0 -0 -0 -0 -9 -0 -0 -0 -0 -0 -0 -0 -0 -0 -0
-55 -8 -2 -1 -6 -7 -0 -0 -0 -0 -0 -0 -0 -0 -0 -0 -17 -10 -7 -7 -112 -73 -88 -78 -79 -108 -147 -0 -0 -0 -1 -0 -0 -3 -0 -0 -0 -0 -0 -0 -0 -0 -0
-82 -45 -13 -3 -17 -6 -0 -1 -0 -0 -0 -0 -0 -0 -0 -0 -9 -10 -8 -0 -56 -48 -50 -80 -91 -131 -101 -0 -0 -0 -0 -0 -2 -17 -0 -1 -0 -0 -0 -0 -0 -0 -0
-37 -20 -2 -3 -0 -0 -8 -7 -3 -1 -0 -0 -0 -0 -0 -0 -8 -21 -11 -0 -2 -18 -21 -48 -92 -116 -113 -0 -0 -0 -0 -0 -0 -1 -1 -0 -1 -0 -0 -0 -0 -0 -0
-103 -65 -53 -13 -4 -0 -2 -50 -38 -35 -36 -24 -26 -15 -2 -0 -10 -8 -8 -0 -0 -19 -30 -21 -67 -96 -115 -122 -0 -0 -0 -0 -1 -0 -0 -0 -4 -7 -0 -0 -0 -0 -0
-84 -101 -90 -76 -85 -44 -98 -72 -108 -99 -89 -78 -72 -56 -48 -29 -16 -56 -55 -29 -19 -2 -4 -12 -23 -55 -99 -111 -0 -0 -0 -0 -0 -0 -0 -0 -0 -0 -0 -0 -1 -0 -0
-56 -68 -200 -82 -57 -64 -95 -147 -70 -348 -218 -126 -103 -57 -68 -108 -58 -22 -26 -28 -12 -2 -3 -7 -16 -38 -40 -109 -49 -0 -0 -0 -0 -0 -0 -0 -0 -0 -0 -0 -0 -0 -0
-24 -137 -54 -55 -212 -170 -159 -27 -21 -35 -16 -354 -269 -90 -226 -81 -78 -42 -36 -27 -13 -0 -0 -0 -0 -5 -27 -92 -129 -0 -0 -0 -0 -0 -0 -0 -0 -0 -0 -0 -0 -0 -0
-109 -96 -38 -74 -23 -6 -98 -104 -64 -2 -109 -2 -0 -228 -82 -60 -83 -53 -16 -0 -3 -7 -1 -0 -33 -3 -3 -51 -97 -0 -0 -0 -0 -0 -0 -0 -0 -0 -0 -0 -0 -0 -0
-55 -15 -27 -38 -21 -37 -5 -0 -1 -3 -61 -104 -0 -0 -263 -186 -419 -201 -282 -53 -20 -20 -6 -7 -25 -21 -36 -20 -51 -145 -0 -0 -0 -0 -0 -0 -0 -0 -0 -0 -0 -0 -0
-93 -97 -66 -55 -40 -25 -3 -39 -71 -49 -25 -43 -7 -9 -42 -359 -181 -105 -29 -42 -49 -62 -29 -19 -22 -36 -9 -24 -10 -56 -0 -0 -0 -0 -0 -0 -0 -0 -0 -0 -0 -0 -0
-107 -94 -83 -103 -85 -45 -8 -26 -41 -37 -50 -48 -52 -111 -152 -79 -40 -41 -22 -3 -0 -0 -0 -31 -11 -19 -12 -1 -1 -40 -49 -0 -0 -0 -0 -0 -0 -0 -0 -0 -0 -0 -0
-107 -110 -117 -91 -117 -88 -83 -62 -23 -27 -61 -52 -35 -62 -18 -4 -0 -0 -42 -0 -9 -1 -9 -0 -15 -4 -9 -17 -17 -14 -14 -53 -0 -0 -0 -0 -0 -0 -0 -0 -0 -0 -0
-156 -90 -78 -92 -78 -55 -54 -70 -83 -54 -21 -10 -3 -0 -0 -0 -0 -35 -8 -13 -0 -0 -0 -0 -0 -16 -0 -0 -0 -8 -4 -5 -21 -0 -0 -0 -0 -0 -0 -0 -0 -0 -0
-149 -83 -43 -30 -42 -43 -29 -39 -42 -56 -83 -78 -62 -106 -143 -13 -7 -2 -7 -20 -14 -0 -0 -0 -2 -1 -0 -0 -0 -1 -9 -31 -0 -0 -0 -0 -0 -0 -0 -0 -0 -0 -0
-103 -75 -50 -39 -0 -0 -6 -27 -24 -15 -18 -37 -0 -11 -210 -129 -7 -0 -0 -0 -0 -0 -0 -0 -0 -0 -1 -19 -4 -3 -5 -7 -25 -0 -0 -0 -0 -0 -0 -0 -0 -0 -0
-226 -115 -73 -25 -0 -0 -0 -0 -1 -16 -19 -15 -21 -85 -12 -60 -26 -18 -2 -0 -0 -3 -3 -0 -2 -1 -0 -2 -0 -1 -0 -3 -12 -22 -38 -0 -0 -0 -0 -0 -0 -0 -0
Wind_Speed
10 10 11 11 9 8 9 8 9 9 10 12 10 10 8 2 10 8 11 17 20 24 27 nan nan nan nan nan nan nan nan nan nan nan nan nan nan 28 25 21 nan nan nan
16 12 12 13 11 11 9 10 12 12 12 13 13 14 11 8 6 12 12 19 21 24 27 nan nan nan nan nan nan nan nan nan nan nan nan 52 40 31 30 27 nan nan nan
18 16 14 13 13 14 13 12 13 14 14 13 17 16 15 12 10 14 11 19 21 25 27 nan nan nan nan nan nan nan nan nan nan nan nan nan nan 33 34 30 25 nan nan
19 15 13 12 13 14 14 15 15 15 15 15 16 17 16 13 14 16 16 19 21 24 25 25 nan nan nan nan nan nan nan nan nan nan nan nan nan nan 33 29 nan nan nan
19 19 16 11 12 13 13 13 15 15 15 14 16 17 16 14 16 24 19 18 22 25 27 27 nan nan nan nan nan nan nan nan nan nan nan nan nan nan nan 25 nan nan nan
11 14 17 13 12 13 13 11 12 14 14 14 15 14 16 15 24 31 24 19 22 26 26 27 nan nan nan nan nan nan nan nan nan nan nan nan nan nan nan nan nan nan nan
7 7 10 12 11 11 12 14 13 14 12 14 15 15 17 15 29 29 26 22 20 25 25 32 nan nan nan nan nan nan nan nan nan nan nan nan nan nan nan nan nan nan nan
13 13 14 12 11 13 14 16 17 17 14 13 17 17 19 18 32 29 24 26 20 24 28 30 28 nan nan nan nan nan nan nan nan nan nan nan nan nan nan nan nan nan nan
15 19 16 14 15 15 16 16 19 18 16 15 18 20 20 26 31 30 24 25 22 21 25 25 29 32 nan nan nan nan nan nan nan nan nan nan nan nan nan nan nan nan nan
23 23 21 20 17 15 17 17 19 19 16 15 16 17 20 29 29 28 23 20 24 19 23 22 25 29 nan nan nan nan nan nan nan nan nan nan nan nan nan nan nan nan nan
30 28 25 24 23 22 20 18 19 19 17 16 15 18 19 26 27 25 22 16 23 20 23 22 26 34 nan nan nan nan nan nan nan nan nan nan nan nan nan nan nan nan nan
33 27 26 24 21 23 20 21 21 18 19 16 19 19 23 29 30 22 20 13 23 21 23 21 26 34 33 nan nan nan nan nan nan nan nan nan nan nan nan nan nan nan nan
35 33 32 31 31 29 30 27 23 21 19 19 19 22 27 32 31 23 24 21 26 24 21 25 37 33 31 nan nan nan nan nan nan nan nan nan nan nan nan nan nan nan nan
36 37 35 34 32 31 28 32 33 28 28 31 28 28 28 35 35 34 22 23 31 26 30 30 31 30 26 nan nan nan nan nan nan nan nan nan nan nan nan nan nan nan nan
39 35 32 32 30 30 26 30 37 44 31 39 38 29 30 31 35 35 33 26 26 27 29 31 30 30 25 nan nan nan nan nan nan nan nan nan nan nan nan nan nan nan nan
39 37 39 34 30 33 25 30 27 nan 21 31 31 28 35 32 38 35 38 35 31 36 31 30 30 27 26 24 nan nan nan nan nan nan nan nan nan nan nan nan nan nan nan
45 38 38 34 40 34 34 34 33 nan nan nan nan nan 47 60 64 53 48 41 32 32 33 33 30 26 27 24 nan nan nan nan nan nan nan nan nan nan nan nan nan nan nan
52 47 41 38 35 31 35 34 32 31 30 35 nan nan nan 69 69 63 50 nan 39 34 34 32 34 28 27 30 nan nan nan nan nan nan nan nan nan nan nan nan nan nan nan
47 44 42 40 39 37 30 31 33 28 33 nan nan nan nan nan nan nan nan nan 9 14 12 21 19 24 34 33 28 nan nan nan nan nan nan nan nan nan nan nan nan nan nan
44 44 40 39 43 41 37 35 26 29 25 nan nan nan nan nan 18 15 11 nan nan nan 7 12 14 nan nan 23 32 nan nan nan nan nan nan nan nan nan nan nan nan nan nan
44 42 42 39 37 35 35 26 28 20 17 13 17 16 18 7 4 5 5 3 8 6 10 nan 16 nan nan nan 19 nan nan nan nan nan nan nan nan nan nan nan nan nan nan
31 35 32 36 26 33 31 30 27 23 18 18 19 21 22 5 5 3 nan 5 9 11 nan nan nan 17 nan nan 19 nan nan nan nan nan nan nan nan nan nan nan nan nan nan
26 28 29 30 30 25 25 32 33 31 31 23 23 18 13 6 5 nan nan nan nan nan nan nan nan nan nan 23 28 nan nan nan nan nan nan nan nan nan nan nan nan nan nan
32 30 28 30 30 29 33 30 33 38 32 36 nan nan nan nan nan nan nan nan nan nan nan nan nan nan nan nan nan nan nan nan nan nan nan nan nan nan nan nan nan nan nan
32 30 27 28 28 29 31 35 35 38 41 37 nan nan nan nan nan nan nan nan nan nan nan nan nan nan nan nan nan nan nan nan nan nan nan nan nan nan nan nan nan nan nan
nan nan 29 29 33 32 33 33 36 37 41 43 39 nan nan nan nan nan nan nan nan nan nan nan nan nan nan nan nan nan nan nan nan nan nan nan nan nan nan nan nan nan nan
Wind_Direction
321 312 309 307 320 331 333 339 342 341 336 342 344 334 343 22 310 315 314 329 339 350 353 nan nan nan nan nan nan nan nan nan nan nan nan nan nan 345 326 319 nan nan nan
313 315 316 307 310 308 305 326 330 334 334 337 336 342 350 349 317 317 337 321 334 342 345 nan nan nan nan nan nan nan nan nan nan nan nan 355 356 337 324 318 nan nan nan
313 320 317 320 312 297 302 307 309 316 331 337 329 335 353 353 346 318 324 324 331 331 343 nan nan nan nan nan nan nan nan nan nan nan nan nan nan 347 330 327 328 nan nan
311 305 301 315 311 318 316 317 310 304 313 320 323 328 344 345 351 317 318 322 327 328 334 339 nan nan nan nan nan nan nan nan nan nan nan nan nan nan 353 354 nan nan nan
304 307 307 306 306 314 317 324 323 314 300 304 312 324 333 336 344 318 315 318 329 322 336 341 nan nan nan nan nan nan nan nan nan nan nan nan nan nan nan 17 nan nan nan
303 299 292 292 281 291 304 311 317 317 304 298 303 313 320 326 312 316 312 309 323 325 334 329 nan nan nan nan nan nan nan nan nan nan nan nan nan nan nan nan nan nan nan
265 282 285 288 282 302 299 299 302 301 301 300 295 302 309 317 302 305 313 306 315 326 329 333 nan nan nan nan nan nan nan nan nan nan nan nan nan nan nan nan nan nan nan
295 304 314 298 273 287 301 296 291 285 295 291 289 289 298 302 301 308 312 301 302 322 329 338 341 nan nan nan nan nan nan nan nan nan nan nan nan nan nan nan nan nan nan
288 294 296 317 297 296 300 299 290 290 290 292 288 292 296 291 293 307 308 306 300 315 327 336 339 349 nan nan nan nan nan nan nan nan nan nan nan nan nan nan nan nan nan
275 284 290 281 295 298 301 296 291 287 285 287 290 293 296 289 296 309 305 305 299 303 315 324 333 343 nan nan nan nan nan nan nan nan nan nan nan nan nan nan nan nan nan
249 255 280 286 284 274 274 287 288 293 281 288 281 277 279 283 291 303 308 305 297 296 302 314 331 324 nan nan nan nan nan nan nan nan nan nan nan nan nan nan nan nan nan
246 258 266 271 272 288 279 266 276 286 290 284 284 276 274 273 282 299 298 280 291 294 290 299 308 323 332 nan nan nan nan nan nan nan nan nan nan nan nan nan nan nan nan
239 254 260 254 261 270 260 254 258 278 278 277 280 278 273 272 270 276 281 269 277 282 285 276 297 311 321 nan nan nan nan nan nan nan nan nan nan nan nan nan nan nan nan
239 251 252 256 254 271 269 268 269 264 271 261 255 246 273 272 270 266 260 258 268 273 271 274 285 295 315 nan nan nan nan nan nan nan nan nan nan nan nan nan nan nan nan
244 249 254 256 262 258 260 256 267 266 261 269 264 254 251 256 256 273 275 265 267 274 277 271 274 284 300 nan nan nan nan nan nan nan nan nan nan nan nan nan nan nan nan
240 247 247 256 264 266 271 284 281 nan 306 291 290 262 262 266 259 280 275 266 270 279 269 268 274 275 289 302 nan nan nan nan nan nan nan nan nan nan nan nan nan nan nan
241 241 241 239 260 262 270 279 288 nan nan nan nan nan 253 257 252 255 259 265 261 266 260 265 274 270 274 281 nan nan nan nan nan nan nan nan nan nan nan nan nan nan nan
239 245 242 245 251 253 265 262 267 271 296 294 nan nan nan 264 262 266 262 nan 263 248 254 267 271 266 258 266 nan nan nan nan nan nan nan nan nan nan nan nan nan nan nan
238 239 240 241 247 252 258 262 265 286 292 nan nan nan nan nan nan nan nan nan 332 326 281 260 281 288 235 241 251 nan nan nan nan nan nan nan nan nan nan nan nan nan nan
233 236 243 248 251 251 257 262 270 283 277 nan nan nan nan nan 200 225 279 nan nan nan 325 320 306 nan nan 241 252 nan nan nan nan nan nan nan nan nan nan nan nan nan nan
231 231 231 254 254 249 250 247 264 274 249 265 289 206 198 195 204 290 330 253 293 266 295 nan 306 nan nan nan 279 nan nan nan nan nan nan nan nan nan nan nan nan nan nan
230 236 236 234 227 231 239 244 249 243 229 208 200 196 188 183 170 346 nan 323 249 251 nan nan nan 300 nan nan 268 nan nan nan nan nan nan nan nan nan nan nan nan nan nan
216 218 220 222 228 224 234 233 232 231 219 210 196 198 197 202 191 nan nan nan nan nan nan nan nan nan nan 278 267 nan nan nan nan nan nan nan nan nan nan nan nan nan nan
209 212 214 221 225 232 239 234 233 231 241 230 nan nan nan nan nan nan nan nan nan nan nan nan nan nan nan nan nan nan nan nan nan nan nan nan nan nan nan nan nan nan nan
216 211 212 220 217 223 228 236 233 236 239 238 nan nan nan nan nan nan nan nan nan nan nan nan nan nan nan nan nan nan nan nan nan nan nan nan nan nan nan nan nan nan nan
nan nan 215 219 217 216 221 226 229 232 234 233 232 nan nan nan nan nan nan nan nan nan nan nan nan nan nan nan nan nan nan nan nan nan nan nan nan nan nan nan nan nan nan